Regional Weather Roundup
Issued by NWS

Home | Current Version | Previous Version | Graphics & Text | Print | Product List | Glossary On
Versions: 1 2 3 4 5 6 7 8 9 10 11 12 13 14 15 16 17 18 19 20 21 22 23 24 25 26 27 28 29 30 31 32 33 34 35 36 37 38 39 40 41 42 43 44 45 46 47 48 49 50
000
ASUS43 KTOP 291259
RWRKS

WEATHER ROUNDUP FOR KANSAS
NATIONAL WEATHER SERVICE GOODLAND KS
800 AM CDT FRI JUL 29 2016

NOTE:  "FAIR" INDICATES FEW OR NO CLOUDS BELOW 12,000 FEET WITH NO
SIGNIFICANT WEATHER AND/OR OBSTRUCTIONS TO VISIBILITY.

KSZ001>006-013>018-027>032-041>047-291400-
NORTHWEST KANSAS

CITY           SKY/WX    TMP DP  RH WIND       PRES   REMARKS
GOODLAND       CLOUDY    62  60  93 SE3       30.13R FOG
HAYS           CLOUDY    70  61  73 NE6       30.08R
HILL CITY      PTSUNNY   67  64  90 NE6       30.10R
RUSSELL        CLOUDY    69  67  93 CALM      30.06R
$$

KSZ061>065-074>080-084>089-291400-
SOUTHWEST KANSAS

CITY           SKY/WX    TMP DP  RH WIND       PRES   REMARKS
DODGE CITY     MOSUNNY   66  64  93 S8        30.06F
ELKHART          N/A     64  59  84 N8          N/A
GARDEN CITY    MOSUNNY   65  62  90 SE5       30.08F
GREAT BEND     CLOUDY    66  61  82 CALM      30.06R
LIBERAL        MOSUNNY   66  61  82 NE9       30.10R
$$

KSZ066>073-081>083-090>101-291400-
SOUTHEAST KANSAS

CITY           SKY/WX    TMP DP  RH WIND       PRES   REMARKS
CHANUTE        CLOUDY    70  67  90 CALM      29.99S
COFFEYVILLE    CLOUDY    71  68  90 NW7       30.00R
HUTCHINSON     PTSUNNY   69  66  90 N5        30.08R
NEWTON         RAIN      68  67  96 W6        30.09R
PARSONS        CLOUDY    71  68  90 CALM      30.00R
WICHITA INTL   TSTM      70  68  93 SW6       30.06R FOG
WICHITA JABRA  LGT RAIN  70  69  97 W9        30.07R
WICHITA MCCONL LGT RAIN  70  68  94 W8        30.06R FOG
WINFIELD       RAIN      68  64  87 S17       30.01F
$$

KSZ007>012-019>026-033>040-048>060-102>105-291400-
NORTHEAST KANSAS

CITY           SKY/WX    TMP DP  RH WIND       PRES   REMARKS
CONCORDIA      MOSUNNY   68  64  87 MISG      30.06R
EMPORIA        CLOUDY    68  67  96 NW3       30.03R
LAWRENCE       CLOUDY    70  66  87 CALM      30.01R
MANHATTAN      PTSUNNY   70  68  93 CALM      30.03R
OLATHE IND     CLOUDY    69  68  96 N5        30.02R
OLATHE EXE     PTSUNNY   70  66  87 NE6       30.01R
SALINA         PTSUNNY   70  67  90 SW9       30.05R
TOPEKA BILLARD CLOUDY    70  66  87 N3        30.02R
TOPEKA FORBES  CLOUDY    70  67  90 CALM      30.02R
$$




USA.gov is the U.S. government's official web portal to all federal, state and local government web resources and services.